Torna al catalogo

FENGYUN 1C DEB

AttivoPO
NORAD 38817·DEBRIS·🇨🇳 China

Lanciato May 10, 1999 da Taiyuan Satellite Launch Center

Loading…

Prossimi Passaggi (prossime 24 ore)

TLE

In scadenzaSource: Space-Track

Epoca: Sep 7, 2026, 07:57 UTC

1 38817U 99025EVH 26250.33134662  .00000751  00000-0  81840-3 0  9992
2 38817  98.5783  92.5489 0290601  63.5547 299.5101 13.58447297694808

Traccia FENGYUN 1C DEB in tempo reale con AllMySat

Download on the App Store